[[{"header":{"parameterUnit":"m.s-1","parameterCategory":1,"la1":30.2991,"la2":30.254,"lo1":-89.0895,"lo2":-89.0444,"dy":0.0017,"dx":0.0017,"nx":28,"ny":28,"refTime":"2023-08-06T09:00:00:Z","depth":0,"parameterNumber":2,"parameterNumberName":"U-component_of_WINDS"},"data":[0,0,0,0,0,0,0,0,0,0,0,0,0,0,0,0,0,0,0,0,0,0,0,0,0,0,0,0,0,0,0,0,0,0,0,0,0,0,0,0,0,0,0,0,0,0,0,0,0,0,0,0,0,0,0,0,0,0,3.7292,3.7293,0,3.7363,3.7363,3.7364,3.7352,3.7351,3.7349,3.7348,3.7423,3.7426,3.7429,0,0,0,0,0,0,0,0,0,0,0,0,0,3.715,3.7153,3.7292,3.7293,3.7294,3.7362,3.7363,3.7364,3.7352,3.735,3.7349,3.7348,3.7421,3.7425,3.7429,0,0,0,0,0,0,0,0,0,0,0,0,0,3.7216,3.7154,3.7292,3.7296,3.7297,3.7362,3.7363,3.7365,3.7352,3.735,3.7349,3.7347,3.742,3.7425,3.7429,3.7496,0,0,3.7444,3.7446,0,0,0,0,0,0,0,0,3.7212,3.7221,3.7294,3.7296,3.7297,3.7346,3.7341,3.7409,3.7353,3.7331,3.7348,3.7346,3.7399,3.7405,3.7423,3.7499,3.7503,3.7444,3.7447,3.7449,3.7451,0,0,0,0,0,0,0,3.7207,3.7218,3.732,3.7296,3.7297,3.7295,3.7302,3.7354,3.7375,3.7333,3.7332,3.7341,3.7399,3.7418,3.7424,3.7504,3.7444,3.7448,3.7451,3.7453,3.7641,3.7643,0,0,0,0,0,0,3.7201,3.7214,3.7318,3.7322,3.7249,3.7299,3.7307,3.7333,3.7374,3.7379,3.7342,3.734,3.7411,3.7419,3.7427,3.7509,3.7449,3.7454,3.7456,3.7639,3.7642,3.7644,0,0,0,0,0,0,3.7198,3.7211,3.7315,3.7268,3.7281,3.7304,3.7332,3.7335,3.7354,3.7381,3.7385,3.7357,3.741,3.742,3.7479,3.7511,3.7456,3.746,3.7636,3.764,3.7643,3.7672,0,0,0,0,0,0,3.7194,3.721,3.7234,3.7269,3.7284,3.7365,3.7334,3.7338,3.7362,3.7359,3.7396,3.7401,3.7409,3.7472,3.7484,3.7517,3.7464,3.7634,3.7638,3.7642,3.7669,3.7676,3.7683,0,0,0,0,0,3.7189,3.724,3.7235,3.7248,3.7315,3.7367,3.7376,3.7384,3.7364,3.739,3.7408,3.74,3.7506,3.7478,3.7491,3.7526,3.7632,3.7637,3.7641,3.7666,3.7675,3.7683,0,0,0,0,0,0,3.7209,3.7244,3.724,3.7303,3.7332,3.7365,3.7397,3.7393,3.7429,3.7425,3.7434,3.7443,3.7503,3.752,3.7489,3.7594,3.7566,3.7574,3.758,3.7589,3.7596,3.7591,3.7468,0,0,0,0,0,3.722,3.7259,3.7288,3.7341,3.7356,3.7374,3.7397,3.7401,3.7432,3.7444,3.7466,3.7497,3.7538,3.7564,3.7603,3.7671,3.768,3.7702,3.7709,3.7714,3.7721,3.776,3.7771,3.766,3.766,3.766,0,0,3.7245,3.7269,3.7293,3.7346,3.7369,3.741,3.7385,3.7429,3.746,3.7451,3.7508,3.7526,3.7561,3.7626,3.7655,3.7642,3.7754,3.7721,3.7725,3.7729,3.7766,3.7777,3.7786,3.7663,3.7663,3.7662,0,0,3.731,3.7332,3.7379,3.7403,3.7438,3.745,3.7462,3.7496,3.7507,3.7564,3.7559,3.7597,3.7666,3.7692,3.7714,3.7792,3.7786,3.7804,3.7841,3.7879,3.7888,3.7896,3.7925,3.7935,3.7811,3.7811,3.7811,0,3.7336,3.7397,3.7404,3.7449,3.7473,3.7467,3.7516,3.7539,3.7586,3.7603,3.7588,3.7675,3.7699,3.777,3.7789,3.7807,3.7821,3.78,3.7886,3.7894,3.7901,3.7929,3.794,3.7813,3.7813,3.7812,3.7812,0,3.7428,3.7471,3.7505,3.7549,3.7577,3.7624,3.7639,3.7667,3.7669,3.7683,3.7743,3.7771,3.7816,3.7833,3.7835,3.7905,3.7896,3.7883,3.7856,3.7914,3.794,3.7951,3.7816,3.7815,3.7814,3.7814,0,0,3.7507,3.7556,3.7569,3.759,3.7629,3.7662,3.771,3.7753,3.7778,3.781,3.7851,3.7911,3.79,3.7925,3.793,3.7963,3.8025,3.7947,3.7948,3.7961,3.8106,3.8116,3.8128,3.8022,3.8024,3.8025,3.8103,0,3.7577,3.766,3.7668,3.7743,3.7783,3.7779,3.7821,3.785,3.7865,3.7902,3.7919,3.7962,3.7943,3.7958,3.7991,3.801,3.8054,3.8005,3.8061,3.8063,3.8053,3.8141,3.8152,3.8224,3.8113,3.8115,3.8116,0,3.767,3.7705,3.7784,3.7819,3.7836,3.7873,3.7915,3.795,3.7984,3.7993,3.8022,3.8023,3.8074,3.8044,3.8115,3.8081,3.8105,3.8118,3.8121,3.8127,3.8093,3.8151,3.8247,3.8258,3.8132,3.8131,3.813,0,3.7721,3.7789,3.7844,3.7862,3.7904,3.7931,3.795,3.7982,3.8008,3.8045,3.8062,3.8105,3.8128,3.8162,3.8175,3.8152,3.8246,3.8217,3.8256,3.8256,3.8276,3.8274,3.8378,3.829,3.829,3.829,3.8289,0,3.7799,3.7848,3.7868,3.7903,3.7958,3.7968,3.8022,3.804,3.8069,3.8108,3.8107,3.8144,3.8159,3.8199,3.821,3.8267,3.8278,3.8287,3.829,3.8288,3.8287,3.8304,3.8299,3.8292,3.8292,3.8291,3.8291,0,3.7866,3.7881,3.7942,3.7977,3.7988,3.8027,3.8057,3.8091,3.8106,3.8156,3.8168,3.8192,3.8239,3.8255,3.8312,3.832,3.8387,3.8385,3.8376,3.8376,3.8415,3.8411,3.8533,3.855,3.845,3.8451,3.8452,0,3.7915,3.7952,3.7991,3.8017,3.8037,3.8078,3.8105,3.8117,3.8145,3.8188,3.8218,3.8264,3.8302,3.8377,3.8401,3.8445,3.8444,3.8484,3.8451,3.8448,3.8446,3.8444,3.8449,3.849,3.8491,3.8492,3.8493,0,3.8,3.8006,3.8045,3.8087,3.8119,3.8152,3.8185,3.8206,3.8223,3.8256,3.8303,3.8333,3.8391,3.8438,3.8484,3.8505,3.8503,3.8503,3.8515,3.8513,3.8507,3.8512,3.8393,3.85,3.85,3.8499,3.8499,3.8498,3.806,3.8094,3.8127,3.817,3.8196,3.8227,3.8261,3.8281,3.832,3.8368,3.8373,3.8425,3.846,3.8521,3.8544,3.8586,3.8575,3.8591,3.8596,3.86,3.8603,3.85,3.8594,3.8594,3.8594,3.8594,3.8594,0,3.8147,3.8168,3.8208,3.8254,3.8288,3.8282,3.8319,3.8348,3.8394,3.8426,3.8463,3.8519,3.8565,3.8592,3.8639,3.8667,3.8667,3.8679,3.8677,3.8682,3.861,3.8595,3.8678,3.8678,3.8678,3.8678,3.8678,3.8678,3.8196,3.8253,3.8263,3.8333,3.8355,3.8405,3.8426,3.8456,3.8482,3.8544,3.8582,3.8599,3.863,3.8679,3.8721,3.8728,3.8745,3.8758,3.8764,3.8696,3.8687,3.8679,3.8666,3.8762,3.8762,3.8834,3.8835,3.8835]},{"header":{"parameterUnit":"m.s-1","parameterCategory":1,"la1":30.2991,"la2":30.254,"lo1":-89.0895,"lo2":-89.0444,"dy":0.0017,"dx":0.0017,"nx":28,"ny":28,"refTime":"2023-08-06T09:00:00:Z","depth":0,"parameterNumber":3,"parameterNumberName":"V-component_of_WINDS"},"data":[0,0,0,0,0,0,0,0,0,0,0,0,0,0,0,0,0,0,0,0,0,0,0,0,0,0,0,0,0,0,0,0,0,0,0,0,0,0,0,0,0,0,0,0,0,0,0,0,0,0,0,0,0,0,0,0,0,0,0.3875,0.3875,0,0.3864,0.3864,0.3864,0.3855,0.3855,0.3855,0.3855,0.3843,0.3843,0.3843,0,0,0,0,0,0,0,0,0,0,0,0,0,0.3887,0.3887,0.3875,0.3875,0.3875,0.3864,0.3864,0.3864,0.3856,0.3855,0.3855,0.3855,0.3843,0.3843,0.3843,0,0,0,0,0,0,0,0,0,0,0,0,0,0.388,0.3887,0.3875,0.387,0.3869,0.3864,0.3864,0.3864,0.3856,0.3855,0.3855,0.3855,0.3844,0.3843,0.3843,0.3843,0,0,0.3842,0.3842,0,0,0,0,0,0,0,0,0.388,0.3879,0.3871,0.387,0.3869,0.3861,0.3864,0.3857,0.3856,0.3861,0.3855,0.3855,0.3849,0.3848,0.3847,0.3842,0.3842,0.3842,0.3841,0.3841,0.3841,0,0,0,0,0,0,0,0.3881,0.388,0.3871,0.387,0.387,0.3867,0.3866,0.3863,0.3856,0.386,0.3859,0.3858,0.3849,0.3847,0.3846,0.3842,0.3842,0.3841,0.3841,0.3841,0.3835,0.3836,0,0,0,0,0,0,0.3882,0.388,0.3871,0.3871,0.3875,0.3867,0.3865,0.3864,0.3856,0.3854,0.3858,0.3858,0.3848,0.3847,0.3846,0.3845,0.3841,0.3841,0.3841,0.3835,0.3836,0.3836,0,0,0,0,0,0,0.3883,0.3882,0.3872,0.3875,0.3874,0.3867,0.3865,0.3864,0.3862,0.3855,0.3853,0.3858,0.3848,0.3846,0.3843,0.3844,0.3841,0.384,0.3835,0.3835,0.3836,0.3843,0,0,0,0,0,0,0.3883,0.3882,0.3882,0.3875,0.3874,0.387,0.3865,0.3864,0.3861,0.3861,0.3854,0.3852,0.3847,0.3844,0.3843,0.3844,0.384,0.3835,0.3835,0.3836,0.3843,0.3843,0.3844,0,0,0,0,0,0.3883,0.3885,0.3882,0.3881,0.3874,0.387,0.3869,0.3864,0.3861,0.3861,0.3856,0.3853,0.3844,0.3844,0.3843,0.3843,0.3835,0.3835,0.3836,0.3842,0.3843,0.3844,0,0,0,0,0,0,0.3892,0.3884,0.3881,0.388,0.3876,0.3869,0.3869,0.3865,0.3861,0.3861,0.3854,0.3852,0.385,0.3846,0.3846,0.3842,0.3839,0.3839,0.3845,0.3845,0.3846,0.3847,0.384,0,0,0,0,0,0.3894,0.3892,0.3885,0.3885,0.3883,0.3876,0.3874,0.387,0.3865,0.3863,0.3858,0.3853,0.385,0.3847,0.3843,0.3842,0.384,0.3841,0.3842,0.3843,0.3843,0.384,0.3841,0.3836,0.3836,0.3836,0,0,0.3898,0.3893,0.3892,0.3886,0.3883,0.388,0.3875,0.3872,0.387,0.3863,0.386,0.3856,0.385,0.3847,0.3846,0.3844,0.3843,0.3843,0.3843,0.3843,0.3841,0.3841,0.3841,0.3836,0.3836,0.3836,0,0,0.3904,0.39,0.39,0.3896,0.389,0.3885,0.3885,0.3878,0.3875,0.3871,0.3866,0.3862,0.3856,0.3852,0.3849,0.3851,0.3847,0.385,0.3853,0.3851,0.3852,0.3852,0.3852,0.3852,0.385,0.385,0.385,0,0.3909,0.3906,0.39,0.3897,0.3894,0.3887,0.3886,0.3882,0.3876,0.3873,0.3872,0.3863,0.3858,0.3854,0.3854,0.3852,0.3851,0.3851,0.3852,0.3852,0.3852,0.3853,0.3853,0.385,0.385,0.385,0.385,0,0.3912,0.391,0.391,0.3903,0.39,0.3898,0.3891,0.3889,0.3884,0.388,0.3876,0.387,0.3864,0.3863,0.3859,0.3858,0.3857,0.3854,0.385,0.3853,0.3853,0.3853,0.3851,0.3851,0.3851,0.3851,0,0,0.3924,0.3913,0.3913,0.391,0.3902,0.3899,0.3897,0.3891,0.3889,0.3884,0.3881,0.3875,0.3872,0.3868,0.3864,0.3862,0.3863,0.3859,0.3858,0.3859,0.386,0.3862,0.3862,0.386,0.386,0.386,0.386,0,0.3928,0.3924,0.3917,0.3914,0.3911,0.3904,0.3901,0.3896,0.3891,0.3887,0.3882,0.3877,0.3874,0.3871,0.3869,0.3863,0.3863,0.3863,0.3856,0.3856,0.3858,0.3863,0.3865,0.3866,0.386,0.386,0.386,0,0.3933,0.3928,0.3925,0.3916,0.3915,0.3913,0.3906,0.3903,0.3896,0.3892,0.3888,0.3883,0.3878,0.3875,0.3869,0.3869,0.3866,0.3862,0.3862,0.3862,0.3859,0.3861,0.3866,0.3866,0.386,0.386,0.386,0,0.3941,0.3934,0.3931,0.3928,0.3918,0.3916,0.3912,0.3905,0.3902,0.3896,0.3893,0.3887,0.3884,0.3879,0.3871,0.387,0.3866,0.3862,0.3862,0.3862,0.3862,0.3862,0.3866,0.386,0.386,0.386,0.386,0,0.3946,0.3944,0.3934,0.3932,0.3929,0.3922,0.3919,0.3914,0.3908,0.3904,0.3897,0.3894,0.3884,0.388,0.3874,0.3869,0.3867,0.3864,0.3862,0.3865,0.3865,0.3862,0.3862,0.386,0.386,0.386,0.386,0,0.3955,0.3948,0.3944,0.3935,0.3932,0.3931,0.3922,0.392,0.3914,0.3909,0.3908,0.3899,0.3892,0.3885,0.3876,0.3872,0.3868,0.3866,0.387,0.3869,0.3869,0.3869,0.3871,0.3871,0.3866,0.3866,0.3866,0,0.3959,0.3957,0.3948,0.3945,0.3941,0.3936,0.3932,0.3924,0.3921,0.3912,0.391,0.3903,0.3898,0.3888,0.388,0.3873,0.3871,0.3872,0.387,0.3871,0.387,0.387,0.387,0.3873,0.3873,0.3873,0.3873,0,0.3966,0.3963,0.3958,0.3951,0.3947,0.3941,0.3936,0.3933,0.3924,0.392,0.3914,0.3909,0.39,0.3893,0.3885,0.388,0.3874,0.3873,0.3873,0.3875,0.3878,0.3876,0.3871,0.3874,0.3874,0.3873,0.3873,0.3873,0.3972,0.397,0.3963,0.3957,0.3952,0.3946,0.3943,0.3936,0.3931,0.3923,0.3918,0.3912,0.3904,0.3892,0.3887,0.3881,0.388,0.3879,0.3879,0.3879,0.3879,0.3878,0.388,0.388,0.388,0.388,0.388,0,0.3979,0.3973,0.3968,0.396,0.3955,0.3951,0.3944,0.394,0.3934,0.3927,0.3922,0.3914,0.3907,0.3898,0.389,0.3887,0.3884,0.3885,0.3885,0.3884,0.3882,0.3883,0.3887,0.3887,0.3887,0.3887,0.3887,0.3887,0.3982,0.3977,0.3972,0.3965,0.3959,0.3953,0.3949,0.3944,0.3938,0.3929,0.3924,0.3918,0.391,0.3901,0.3894,0.3892,0.3889,0.389,0.3887,0.3885,0.3884,0.3884,0.3885,0.389,0.389,0.389,0.389,0.389]}]]